This is the latest recevied weather packets stored in our database for station/object 5B4ALR-13. If no packets are shown the sender has not sent any weather packets the latest 10 day(s).
| Time | Temp. | Humidity | Pressure | Rain* | Wind** | Luminosity | Snow |
|---|---|---|---|---|---|---|---|
| 1778261469 | 23.89° C | 47% | 1017.8 hPa | 0 mm | - | - | - |
| 1778260869 | 23.89° C | 44% | 1017.8 hPa | 0 mm | - | - | - |
| 1778260269 | 24.44° C | 41% | 1017.7 hPa | 0 mm | - | - | - |
| 1778259669 | 24.44° C | 41% | 1017.7 hPa | 0 mm | - | - | - |
| 1778259069 | 24.44° C | 40% | 1017.6 hPa | 0 mm | - | - | - |
| 1778258469 | 25° C | 40% | 1017.4 hPa | 0 mm | - | - | - |
| 1778257869 | 25° C | 40% | 1017.4 hPa | 0 mm | - | - | - |
| 1778257269 | 25° C | 40% | 1017.3 hPa | 0 mm | - | - | - |
| 1778256669 | 25.56° C | 39% | 1017.4 hPa | 0 mm | - | - | - |
| 1778256069 | 25.56° C | 39% | 1017.4 hPa | 0 mm | - | - | - |
| 1778255469 | 26.11° C | 39% | 1017.4 hPa | 0 mm | - | - | - |
| 1778254869 | 26.11° C | 38% | 1017.2 hPa | 0 mm | - | - | - |
| 1778254269 | 26.11° C | 39% | 1017.3 hPa | 0 mm | - | - | - |
| 1778253669 | 26.11° C | 39% | 1017.2 hPa | 0 mm | - | - | - |
| 1778253069 | 26.11° C | 39% | 1017.1 hPa | 0 mm | - | - | - |
| 1778252469 | 26.67° C | 39% | 1017.1 hPa | 0 mm | - | - | - |
| 1778251869 | 26.67° C | 39% | 1017.1 hPa | 0 mm | - | - | - |
| 1778251269 | 27.22° C | 38% | 1017.3 hPa | 0 mm | - | - | - |
| 1778250669 | 26.67° C | 39% | 1017.3 hPa | 0 mm | - | - | - |
| 1778250069 | 27.22° C | 39% | 1017.3 hPa | 0 mm | - | - | - |
| 1778249469 | 27.22° C | 39% | 1017.3 hPa | 0 mm | - | - | - |
| 1778248869 | 27.22° C | 40% | 1017.2 hPa | 0 mm | - | - | - |
| 1778248269 | 26.67° C | 40% | 1017.2 hPa | 0 mm | - | - | - |
| 1778247669 | 27.22° C | 40% | 1017.2 hPa | 0 mm | - | - | - |
| 1778247069 | 27.22° C | 41% | 1017.2 hPa | 0 mm | - | - | - |
* Rain latest hour (hover to see other rain measurements)
** Current wind speed in m/s (hover to see current wind gust speed)